Weather History for Crescent City, CA

Change the Weather History Date:

Wednesday, June 4, 2014

  Actual Average Record
Temperature  
Mean Temperature 52 °F 54 °F  
Max Temperature 60 °F 60 °F 80 °F (1949)
Min Temperature 43 °F 48 °F 37 °F (1963)
Degree Days  
Heating Degree Days 15 11  
Month to date heating degree days 44  
Since 1 June heating degree days 44  
Since 1 July heating degree days 4595  
Cooling Degree Days 0 0  
Month to date cooling degree days 0  
Year to date cooling degree days 0  
Since 1 June cooling degree days 0  
Moisture  
Dew Point 48 °F    
Average Humidity 88    
Maximum Humidity 100    
Minimum Humidity 75    
Precipitation  
Precipitation 0.00 in 0.07 in 0.85 in (1990)
Month to date precipitation 0.00 0.28  
Year to date precipitation 23.03 35.48  
Since 1 July precipitation 32.02 62.58  
Snow  
Snow 0.00 in - - ()
Month to date snowfall 0.0  
Since 1 June snowfall 0.0  
Since 1 July snowfall 0.0  
Snow Depth -    
Sea Level Pressure  
Sea Level Pressure 29.95 in    
Wind  
Wind Speed 6 mph (NW)    
Max Wind Speed 22 mph    
Max Gust Speed 29 mph    
Visibility 4 miles    
Events Fog    
T = Trace of Precipitation, MM = Missing Value Source: NWS Daily Summary

Daily Weather History Graph

Daily Weather History Graph

Search for Another Location

Airport:

Trip Planner

Search our weather history database for the weather conditions in past years. The results will help you decide how hot, cold, wet, or windy it might be!

Date:

Astronomy

Jun. 04, 2014 Rise Set
Actual Time 5:43 AM PDT 8:47 PM PDT
Civil Twilight 5:09 AM PDT 9:21 PM PDT
Nautical Twilight 4:26 AM PDT 10:04 PM PDT
Astronomical Twilight 3:35 AM PDT 10:55 PM PDT
Moon 12:12 PM PDT (6/4) 12:45 AM PDT (6/4)
Length of Visible Light 16h 11m
Length of Day
15h 04m
Waxing Crescent, 40% of the Moon is Illuminated
Jun 4
Waxing Crescent
Jun 5
First Quarter
Jun 12
Full
Jun 19
Last Quarter
Jun 27
New

Hourly Weather History & Observations

Time (PDT) Temp. Windchill Dew Point Humidity Pressure Visibility Wind Dir Wind Speed Gust Speed Precip Events Conditions
12:37 AM 48.9 °F - 48.0 °F 97% 29.99 in 7.0 mi Calm Calm - N/A   Mostly Cloudy
12:56 AM 48.9 °F - 48.0 °F 97% 29.99 in 7.0 mi Calm Calm - N/A   Overcast
1:41 AM 45.0 °F - 45.0 °F 100% 29.99 in 1.8 mi Calm Calm - N/A   Overcast
1:47 AM 46.9 °F - 46.0 °F 97% 29.98 in 0.8 mi Calm Calm - N/A   Mist
1:53 AM 46.4 °F - 46.4 °F 100% 29.98 in 1.5 mi Calm Calm - N/A   Overcast
1:54 AM 48.0 °F - 46.0 °F 93% 29.99 in 1.8 mi Calm Calm - N/A   Overcast
1:56 AM 48.0 °F - 46.9 °F 96% 29.98 in 3.0 mi Calm Calm - N/A   Overcast
2:56 AM 46.9 °F - 46.0 °F 97% 29.98 in 5.0 mi Calm Calm - N/A   Overcast
3:10 AM 46.9 °F - 46.0 °F 97% 29.98 in 5.0 mi Calm Calm - N/A   Overcast
3:56 AM 45.0 °F - 44.1 °F 97% 29.98 in 5.0 mi Calm Calm - N/A   Mist
4:00 AM 45.0 °F - 44.1 °F 97% 29.97 in 2.5 mi Calm Calm - N/A   Overcast
4:19 AM 45.0 °F - 44.1 °F 97% 29.97 in 1.2 mi Calm Calm - N/A   Overcast
4:27 AM 44.1 °F - 43.0 °F 96% 29.97 in 2.0 mi Calm Calm - N/A   Overcast
4:34 AM 45.0 °F - 45.0 °F 100% 29.97 in 5.0 mi Calm Calm - N/A   Overcast
4:56 AM 44.1 °F - 44.1 °F 100% 29.97 in 1.5 mi Calm Calm - N/A   Overcast
4:59 AM 43.0 °F - 43.0 °F 100% 29.96 in 0.8 mi Calm Calm - N/A   Overcast
5:15 AM 45.0 °F - 45.0 °F 100% 29.96 in 1.0 mi Calm Calm - N/A   Overcast
5:18 AM 45.0 °F - 45.0 °F 100% 29.96 in 2.0 mi Calm Calm - N/A   Overcast
5:25 AM 46.0 °F 44.8 °F 46.0 °F 100% 29.96 in 3.0 mi North 3.5 mph - N/A   Overcast
5:31 AM 46.0 °F 44.8 °F 46.0 °F 100% 29.96 in 1.8 mi NNW 3.5 mph - N/A   Overcast
5:35 AM 46.9 °F - 46.0 °F 97% 29.96 in 0.8 mi Calm Calm - N/A   Overcast
5:56 AM 46.9 °F - 46.9 °F 100% 29.96 in 0.2 mi Calm Calm - N/A Fog Fog
6:33 AM 46.0 °F 44.8 °F 46.0 °F 100% 29.96 in 1.0 mi NNE 3.5 mph - N/A   Mist
6:39 AM 46.9 °F - 46.9 °F 100% 29.96 in 2.0 mi Calm Calm - N/A   Mostly Cloudy
6:44 AM 48.0 °F - 48.0 °F 100% 29.96 in 6.0 mi Calm Calm - N/A   Scattered Clouds
6:56 AM 46.9 °F - 46.9 °F 100% 29.96 in 4.0 mi Calm Calm - N/A   Partly Cloudy
7:02 AM 48.0 °F - 48.0 °F 100% 29.96 in 1.8 mi ESE 3.5 mph - N/A   Scattered Clouds
7:07 AM 48.0 °F - 48.0 °F 100% 29.96 in 1.0 mi Calm Calm - N/A   Mist
7:09 AM 48.0 °F - 48.0 °F 100% 29.96 in 0.8 mi Calm Calm - N/A   Mist
7:23 AM 48.9 °F - 48.9 °F 100% 29.96 in 1.0 mi Calm Calm - N/A   Mist
7:26 AM 48.9 °F - 48.9 °F 100% 29.96 in 2.0 mi Calm Calm - N/A   Overcast
7:35 AM 50.0 °F - 50.0 °F 100% 29.96 in 5.0 mi ESE 3.5 mph - N/A   Overcast
7:56 AM 50.0 °F - 50.0 °F 100% 29.97 in 5.0 mi Calm Calm - N/A   Overcast
8:56 AM 52.0 °F - 51.1 °F 97% 29.98 in 5.0 mi SW 4.6 mph - N/A   Overcast
9:30 AM 54.0 °F - 52.0 °F 93% 29.97 in 7.0 mi SSW 5.8 mph - N/A   Scattered Clouds
9:38 AM 53.1 °F - 51.1 °F 93% 29.97 in 7.0 mi SSW 5.8 mph - N/A   Mostly Cloudy
9:48 AM 54.0 °F - 51.1 °F 90% 29.97 in 8.0 mi WSW 5.8 mph - N/A   Scattered Clouds
9:56 AM 55.0 °F - 51.1 °F 86% 29.98 in 9.0 mi SW 4.6 mph - N/A   Partly Cloudy
10:56 AM 55.9 °F - 52.0 °F 87% 29.97 in 7.0 mi WNW 5.8 mph - N/A   Clear
11:56 AM 57.9 °F - 52.0 °F 81% 29.97 in 7.0 mi NNW 11.5 mph - N/A   Clear
12:56 PM 57.9 °F - 51.1 °F 78% 29.96 in 7.0 mi NNW 17.3 mph 25.3 mph N/A   Clear
2:56 PM 57.9 °F - 51.1 °F 78% 29.94 in 7.0 mi NNW 17.3 mph 28.8 mph N/A   Clear
3:56 PM 57.9 °F - 51.1 °F 78% 29.92 in 7.0 mi NNW 18.4 mph 27.6 mph N/A   Clear
4:56 PM 57.9 °F - 50.0 °F 75% 29.91 in 6.0 mi NNW 17.3 mph 28.8 mph N/A   Haze
5:56 PM 57.0 °F - 50.0 °F 77% 29.89 in 6.0 mi NNW 20.7 mph 27.6 mph N/A   Haze
6:56 PM 55.9 °F - 48.9 °F 77% 29.88 in 6.0 mi NNW 19.6 mph 28.8 mph N/A   Haze
7:36 PM 54.0 °F - 48.9 °F 83% 29.89 in 6.0 mi NNW 12.7 mph 21.9 mph N/A   Haze
7:56 PM 54.0 °F - 48.9 °F 83% 29.89 in 6.0 mi NNW 10.4 mph - N/A   Haze
8:56 PM 52.0 °F - 48.9 °F 89% 29.90 in 4.0 mi Calm Calm - N/A   Overcast
10:56 PM 50.0 °F - 48.9 °F 96% 29.91 in 6.0 mi Calm Calm - N/A   Clear
11:39 PM 46.9 °F - 46.0 °F 97% 29.91 in 2.5 mi NNW 5.8 mph - N/A   Scattered Clouds
11:44 PM 46.9 °F - 46.0 °F 97% 29.91 in 1.8 mi NNW 4.6 mph - N/A   Mostly Cloudy
11:56 PM 46.9 °F - 46.9 °F 100% 29.91 in 1.5 mi NW 3.5 mph - N/A   Mostly Cloudy